This is the latest recevied weather packets stored in our database for station/object VR2MW-X. If no packets are shown the sender has not sent any weather packets the latest 10 day(s).
| Time | Temp. | Humidity | Pressure | Rain* | Wind** | Luminosity | Snow |
|---|---|---|---|---|---|---|---|
| 1777955533 | 21.11° C | 94% | 1014.7 hPa | - | - | - | - |
| 1777954922 | 21.11° C | 92% | 1015.1 hPa | - | - | - | - |
| 1777954312 | 21.11° C | 95% | 1015.3 hPa | - | - | - | - |
| 1777953701 | 21.11° C | 95% | 1015.2 hPa | - | - | - | - |
| 1777953091 | 20° C | 94% | 1015.2 hPa | - | - | - | - |
| 1777952481 | 20° C | 95% | 1015.2 hPa | - | - | - | - |
| 1777951870 | 20° C | 94% | 1015.3 hPa | - | - | - | - |
| 1777951260 | 20° C | 96% | 1015.6 hPa | - | - | - | - |
| 1777950649 | 20° C | 95% | 1015.7 hPa | - | - | - | - |
| 1777950038 | 20° C | 94% | 1015.7 hPa | - | - | - | - |
| 1777949428 | 20° C | 95% | 1015.7 hPa | - | - | - | - |
| 1777948818 | 20° C | 94% | 1015.7 hPa | - | - | - | - |
| 1777948206 | 20° C | 95% | 1015.7 hPa | - | - | - | - |
| 1777947595 | 20° C | 96% | 1015.7 hPa | - | - | - | - |
| 1777946985 | 20° C | 96% | 1015.6 hPa | - | - | - | - |
| 1777946374 | 20° C | 95% | 1015.5 hPa | - | - | - | - |
| 1777945764 | 20° C | 96% | 1015.5 hPa | - | - | - | - |
| 1777945154 | 20° C | 96% | 1015.7 hPa | - | - | - | - |
| 1777944543 | 20° C | 95% | 1015.7 hPa | - | - | - | - |
| 1777943933 | 20° C | 95% | 1015.7 hPa | - | - | - | - |
| 1777943322 | 20° C | 96% | 1015.7 hPa | - | - | - | - |
| 1777942712 | 20° C | 95% | 1015.6 hPa | - | - | - | - |
| 1777942102 | 20° C | 94% | 1015.3 hPa | - | - | - | - |
| 1777941491 | 20° C | 95% | 1015.2 hPa | - | - | - | - |
| 1777940881 | 20° C | 94% | 1015 hPa | - | - | - | - |
* Rain since midnight (hover to see other rain measurements)
** Current wind speed in m/s (hover to see current wind gust speed)